* Astronomy

Members Login
Username 
 
Password 
    Remember Me  
Post Info TOPIC: Asteroid 2011 MC2


L

Posts: 131433
Date:
Asteroid 1995 PA1
Permalink  
 


Asteroid 2011 WW4 = 2011 MC2 = 1995 PA1

Orbital elements:
2011 WW4 = 2011 MC2 = 1995 PA1                           Earth MOID = 0.2371 AU
Id. T. B. Spahr
Epoch 2012 Mar. 14.0 TT = JDT 2456000.5                 MPC
M  77.24985              (2000.0)            P               Q
n   0.31016871     Peri.    8.95602     +0.84181914     +0.53255122
a   2.1614112      Node   318.47359     -0.50306956     +0.71508967
e   0.4224671      Incl.    7.62071     -0.19560560     +0.45280897
P   3.18           H   18.6           G   0.15           U   3

MPEC 2011 - X39



__________________


L

Posts: 131433
Date:
Asteroid 2011 WW4
Permalink  
 


Orbital elements:
2011 WW4                                                 Earth MOID = 0.2171 AU
Epoch 2011 Aug. 27.0 TT = JDT 2455800.5                 MPC
M  14.02740              (2000.0)            P               Q
n   0.30234340     Peri.    7.09490     +0.84189242     +0.53305842
a   2.1985468      Node   320.31854     -0.50135805     +0.71498761
e   0.4410892      Incl.    7.56475     -0.19964282     +0.45237313
P   3.26           H   18.4           G   0.15           U   9

MPEC 2011 - W29



__________________


L

Posts: 131433
Date:
Asteroid 2011 MC2
Permalink  
 


Orbital elements:
2011 MC2
Epoch 2011 Aug. 27.0 TT = JDT 2455800.5                 MPC
M   6.87074              (2000.0)            P               Q
n   0.14327548     Peri.    9.79433     +0.88342905     +0.46026119
a   3.6170524      Node   322.39692     -0.43905170     +0.74764783
e   0.6365185      Incl.    8.27513     -0.16366649     +0.47872994
P   6.88           H   18.2           G   0.15           U   9

MPEC 2011 - M43



__________________
Page 1 of 1  sorted by
 
Quick Reply

Please log in to post quick replies.



Create your own FREE Forum
Report Abuse
Powered by ActiveBoard